Tracking 28790 objects as of 18-Apr-2024
HD Live streaming from Space Station
objects crossing your sky now

THORAD AGENA D DEB

Track THORAD AGENA D DEB now!
10-day predictions


NORAD ID: 4277
Int'l Code: 1969-082DL
Perigee: 845.7 km
Apogee: 907.1 km
Inclination: 70.0 °
Period: 102.3 minutes
Semi major axis: 7247 km
RCS: 0.2357 m2 (medium)
Launch date: September 30, 1969
Source: United States (US)
Launch site: AIR FORCE WESTERN TEST RANGE (AFWTR)

Note: This is SATELLITE DEBRIS
Your satellite tracking list
Your tracking list is empty




NASA's NSSDC Master Catalog

Two Line Element Set (TLE):
1 04277U 69082DL  24108.91789232  .00000406  00000-0  27312-3 0  9999
2 04277  70.0211 301.5319 0042370 202.8436 157.0792 14.07108187797311
Source of the keplerian elements: AFSPC